User: anonymous   Login
Location: Unspecified
(0.0000°N, 0.0000°E)
Time: 01:39:34
(UTC+00:00)
Language:

Aussat K1 - Orbit

View from above orbital plane
View from above orbital plane
View from above satellite
View from above satellite

Ground track
Ground track

The orbit data is extracted from the following two-line orbital elements,

1 15993U 85076B   16150.92816703 +.00000091 +00000-0 +00000-0 0  9992
2 15993 015.2406 011.3764 0003595 254.8213 353.1298 00.99760872082971
Epoch (UTC): 29 May 2016 22:16:33
Eccentricity: 0.0003595
inclination: 15.2406°
perigee height: 35915 km
apogee height: 35945 km
right ascension of ascending node: 11.3764°
argument of perigee: 254.8213°
revolutions per day: 0.99760872
mean anomaly at epoch: 353.1298°
orbit number at epoch: 8297

The dashed part of the orbit path shows where the satellite is in the earth's shadow,  

DLR